Location: Waco, TX
(31.5480°N, 97.1670°W)
Time: 22:56:11
(UTC-05:00)

ISS - Pass Details

Date: 26 April 2018
Orbit: 403 x 406 km, 51.6° (Epoch: 23 April)

Event Time Altitude Azimuth Distance (km) Brightness Sun altitude
Rises 07:07:03 0° 213° (SSW) 2,299 -0.4 3.0°
Reaches altitude 10° 07:09:09 10° 208° (SSW) 1,444 -1.4 3.5°
Maximum altitude 07:12:17 49° 132° (SE) 525 -2.8 4.1°
Drops below altitude 10° 07:15:26 10° 56° (NE) 1,453 0.6 4.8°
Sets 07:17:33 0° 51° (NE) 2,315 1.3 5.2°
